| time (UTC) | temp C | wind direction | speed KPH | gust KPH | rain 1hr cm | rain 24hr cm | rain mn cm | humidity % | barometer mb |
| 20260510140256 | 23 | 289 | 1.6 | 3.2 | 0.00 | 0.00 | 0.00 | 52 | 1014.9 |
| 20260510135755 | 22 | 190 | 0.0 | 3.2 | 0.00 | 0.00 | 0.00 | 51 | 1014.8 |
| 20260510135251 | 22 | 233 | 1.6 | 3.2 | 0.00 | 0.00 | 0.00 | 52 | 1014.9 |
| 20260510134749 | 22 | 268 | 1.6 | 4.8 | 0.00 | 0.00 | 0.00 | 54 | 1014.7 |
| 20260510134246 | 22 | 233 | 0.0 | 4.8 | 0.00 | 0.00 | 0.00 | 54 | 1014.8 |
| 20260510133742 | 22 | 237 | 0.0 | 4.8 | 0.00 | 0.00 | 0.00 | 53 | 1014.8 |
| 20260510133238 | 22 | 193 | 1.6 | 3.2 | 0.00 | 0.00 | 0.00 | 54 | 1014.9 |
| 20260510132734 | 21 | 203 | 0.0 | 1.6 | 0.00 | 0.00 | 0.00 | 55 | 1015.1 |
| 20260510132232 | 21 | 117 | 3.2 | 4.8 | 0.00 | 0.00 | 0.00 | 55 | 1015.0 |
| 20260510131728 | 21 | 223 | 0.0 | 3.2 | 0.00 | 0.00 | 0.00 | 57 | 1015.0 |
| 20260510131227 | 21 | 33 | 1.6 | 3.2 | 0.00 | 0.00 | 0.00 | 60 | 1014.9 |
| 20260510130723 | 21 | 270 | 0.0 | 1.6 | 0.00 | 0.00 | 0.00 | 60 | 1015.1 |
| 20260510130220 | 20 | 255 | 0.0 | 1.6 | 0.00 | 0.00 | 0.00 | 64 | 1015.0 |
| 20260510125716 | 20 | 190 | 0.0 | 1.6 | 0.00 | 0.00 | 0.00 | 66 | 1014.8 |
| 20260510125212 | 19 | 131 | 1.6 | 4.8 | 0.00 | 0.00 | 0.00 | 68 | 1014.7 |
| 20260510124709 | 18 | 213 | 1.6 | 4.8 | 0.00 | 0.00 | 0.00 | 69 | 1014.9 |
| 20260510124207 | 18 | 254 | 0.0 | 3.2 | 0.00 | 0.00 | 0.00 | 71 | 1014.8 |
| 20260510123701 | 18 | 163 | 1.6 | 3.2 | 0.00 | 0.00 | 0.00 | 73 | 1014.7 |
| 20260510123158 | 17 | 214 | 1.6 | 4.8 | 0.00 | 0.00 | 0.00 | 75 | 1014.9 |
| 20260510122654 | 17 | 228 | 0.0 | 4.8 | 0.00 | 0.00 | 0.00 | 77 | 1014.6 |
| 20260510122151 | 17 | 226 | 0.0 | 3.2 | 0.00 | 0.00 | 0.00 | 80 | 1014.6 |
| 20260510121647 | 17 | 244 | 0.0 | 3.2 | 0.00 | 0.00 | 0.00 | 80 | 1014.4 |
| 20260510121144 | 16 | 304 | 0.0 | 0.0 | 0.00 | 0.00 | 0.00 | 88 | 1014.5 |
| 20260510120642 | 15 | 305 | 0.0 | 0.0 | 0.00 | 0.00 | 0.00 | 96 | 1014.3 |
| 20260510120137 | 14 | 307 | 0.0 | 0.0 | 0.00 | 0.00 | 0.00 | 97 | 1013.9 |
| 20260510115634 | 13 | 307 | 0.0 | 0.0 | 0.00 | 0.00 | 0.00 | 97 | 1014.2 |
| 20260510115132 | 14 | 307 | 0.0 | 0.0 | 0.00 | 0.00 | 0.00 | 97 | 1014.2 |
| 20260510114627 | 13 | 309 | 0.0 | 0.0 | 0.00 | 0.00 | 0.00 | 97 | 1014.1 |
| 20260510114124 | 12 | 307 | 0.0 | 0.0 | 0.00 | 0.00 | 0.00 | 97 | 1014.1 |
| 20260510113619 | 12 | 308 | 1.6 | 1.6 | 0.00 | 0.00 | 0.00 | 97 | 1014.1 |
| 20260510113117 | 11 | 301 | 0.0 | 0.0 | 0.00 | 0.00 | 0.00 | 97 | 1014.0 |
| 20260510112613 | 11 | 301 | 0.0 | 0.0 | 0.00 | 0.00 | 0.00 | 97 | 1013.8 |
| 20260510112109 | 11 | 301 | 0.0 | 0.0 | 0.00 | 0.00 | 0.00 | 97 | 1013.8 |
| 20260510111606 | 11 | 301 | 0.0 | 0.0 | 0.00 | 0.00 | 0.00 | 97 | 1013.7 |
| 20260510111102 | 11 | 301 | 0.0 | 0.0 | 0.00 | 0.00 | 0.00 | 97 | 1013.7 |
| 20260510110558 | 11 | 301 | 0.0 | 0.0 | 0.00 | 0.00 | 0.00 | 97 | 1013.5 |
| 20260510110055 | 10 | 301 | 0.0 | 0.0 | 0.00 | 0.00 | 0.00 | 97 | 1013.3 |
| 20260510105550 | 10 | 301 | 0.0 | 0.0 | 0.00 | 0.00 | 0.00 | 97 | 1013.0 |
| 20260510105045 | 10 | 301 | 0.0 | 0.0 | 0.00 | 0.00 | 0.00 | 97 | 1013.1 |
| 20260510104542 | 10 | 300 | 0.0 | 0.0 | 0.00 | 0.00 | 0.00 | 97 | 1013.0 |
| 20260510104038 | 11 | 300 | 0.0 | 0.0 | 0.00 | 0.00 | 0.00 | 96 | 1012.9 |
| 20260510103536 | 11 | 300 | 0.0 | 0.0 | 0.00 | 0.00 | 0.00 | 96 | 1012.9 |
| 20260510103032 | 11 | 300 | 0.0 | 0.0 | 0.00 | 0.00 | 0.00 | 96 | 1012.7 |
| 20260510102527 | 11 | 300 | 0.0 | 0.0 | 0.00 | 0.00 | 0.00 | 96 | 1012.8 |
| 20260510102024 | 11 | 300 | 0.0 | 0.0 | 0.00 | 0.00 | 0.00 | 96 | 1012.5 |
| 20260510101522 | 11 | 300 | 0.0 | 0.0 | 0.00 | 0.00 | 0.00 | 97 | 1012.6 |
| 20260510101020 | 11 | 300 | 0.0 | 0.0 | 0.00 | 0.00 | 0.00 | 96 | 1012.6 |
| 20260510100516 | 12 | 300 | 0.0 | 0.0 | 0.00 | 0.00 | 0.00 | 97 | 1012.5 |
| 20260510100013 | 12 | 300 | 0.0 | 0.0 | 0.00 | 0.00 | 0.00 | 97 | 1012.4 |
| 20260510095508 | 12 | 305 | 0.0 | 0.0 | 0.00 | 0.00 | 0.00 | 96 | 1012.5 |
| 20260510095008 | 12 | 314 | 0.0 | 0.0 | 0.00 | 0.00 | 0.00 | 96 | 1012.4 |
| 20260510094502 | 12 | 314 | 0.0 | 0.0 | 0.00 | 0.00 | 0.00 | 96 | 1012.3 |
| 20260510093958 | 12 | 313 | 0.0 | 0.0 | 0.00 | 0.00 | 0.00 | 96 | 1012.5 |
| 20260510093454 | 12 | 313 | 0.0 | 0.0 | 0.00 | 0.00 | 0.00 | 96 | 1012.1 |
| 20260510092951 | 12 | 313 | 0.0 | 0.0 | 0.00 | 0.00 | 0.00 | 96 | 1012.5 |
| 20260510092449 | 12 | 313 | 0.0 | 0.0 | 0.00 | 0.00 | 0.00 | 96 | 1012.5 |
| 20260510091948 | 12 | 314 | 0.0 | 0.0 | 0.00 | 0.00 | 0.00 | 96 | 1012.4 |
| 20260510091445 | 13 | 314 | 0.0 | 1.6 | 0.00 | 0.00 | 0.00 | 96 | 1012.0 |
| 20260510090942 | 13 | 313 | 0.0 | 0.0 | 0.00 | 0.00 | 0.00 | 96 | 1012.0 |
| 20260510090439 | 13 | 313 | 0.0 | 0.0 | 0.00 | 0.00 | 0.00 | 96 | 1012.0 |
| 20260510085934 | 12 | 314 | 0.0 | 0.0 | 0.00 | 0.00 | 0.00 | 96 | 1011.8 |
| 20260510085430 | 12 | 315 | 0.0 | 0.0 | 0.00 | 0.00 | 0.00 | 96 | 1011.8 |
| 20260510084925 | 12 | 315 | 0.0 | 0.0 | 0.00 | 0.00 | 0.00 | 96 | 1011.8 |
| 20260510084423 | 12 | 337 | 1.6 | 1.6 | 0.00 | 0.00 | 0.00 | 95 | 1011.7 |
| 20260510083919 | 13 | 299 | 0.0 | 0.0 | 0.00 | 0.00 | 0.00 | 96 | 1011.6 |
| 20260510083415 | 13 | 299 | 0.0 | 0.0 | 0.00 | 0.00 | 0.00 | 96 | 1011.8 |
| 20260510082911 | 13 | 299 | 0.0 | 0.0 | 0.00 | 0.00 | 0.00 | 96 | 1011.5 |
| 20260510082409 | 13 | 299 | 0.0 | 0.0 | 0.00 | 0.00 | 0.00 | 96 | 1011.4 |
| 20260510081908 | 13 | 299 | 0.0 | 0.0 | 0.00 | 0.00 | 0.00 | 96 | 1011.4 |
| 20260510081404 | 13 | 299 | 0.0 | 0.0 | 0.00 | 0.00 | 0.00 | 96 | 1011.4 |
| 20260510080901 | 13 | 299 | 0.0 | 0.0 | 0.00 | 0.00 | 0.00 | 96 | 1011.2 |
| 20260510080400 | 13 | 299 | 0.0 | 0.0 | 0.00 | 0.00 | 0.00 | 96 | 1011.4 |
| 20260510075857 | 13 | 299 | 0.0 | 0.0 | 0.00 | 0.00 | 0.00 | 96 | 1011.1 |
| 20260510075355 | 13 | 299 | 0.0 | 0.0 | 0.00 | 0.00 | 0.00 | 95 | 1011.0 |
| 20260510074851 | 13 | 299 | 0.0 | 0.0 | 0.00 | 0.00 | 0.00 | 95 | 1011.1 |
| 20260510074348 | 13 | 299 | 0.0 | 0.0 | 0.00 | 0.00 | 0.00 | 95 | 1010.9 |
| 20260510073844 | 13 | 299 | 0.0 | 0.0 | 0.00 | 0.00 | 0.00 | 95 | 1011.1 |
| 20260510073340 | 13 | 299 | 0.0 | 0.0 | 0.00 | 0.00 | 0.00 | 95 | 1011.2 |
| 20260510072836 | 13 | 299 | 0.0 | 0.0 | 0.00 | 0.00 | 0.00 | 95 | 1011.0 |
| 20260510072334 | 13 | 299 | 0.0 | 0.0 | 0.00 | 0.00 | 0.00 | 95 | 1010.9 |
| 20260510071830 | 13 | 301 | 0.0 | 0.0 | 0.00 | 0.00 | 0.00 | 94 | 1010.9 |
| 20260510071326 | 13 | 0 | 1.6 | 3.2 | 0.00 | 0.00 | 0.00 | 93 | 1011.1 |
| 20260510070825 | 13 | 219 | 1.6 | 1.6 | 0.00 | 0.00 | 0.00 | 94 | 1010.7 |
| 20260510070321 | 13 | 218 | 0.0 | 0.0 | 0.00 | 0.00 | 0.00 | 93 | 1010.7 |
| 20260510065816 | 13 | 218 | 0.0 | 0.0 | 0.00 | 0.00 | 0.00 | 93 | 1011.0 |
| 20260510065313 | 13 | 218 | 0.0 | 0.0 | 0.00 | 0.00 | 0.00 | 93 | 1011.1 |
| 20260510064810 | 14 | 218 | 0.0 | 0.0 | 0.00 | 0.00 | 0.00 | 93 | 1010.9 |
| 20260510064308 | 14 | 218 | 0.0 | 0.0 | 0.00 | 0.00 | 0.00 | 92 | 1010.9 |
| 20260510063803 | 14 | 218 | 0.0 | 0.0 | 0.00 | 0.00 | 0.00 | 92 | 1011.0 |
| 20260510063259 | 15 | 217 | 0.0 | 0.0 | 0.00 | 0.00 | 0.00 | 92 | 1010.9 |
| 20260510062756 | 15 | 217 | 0.0 | 0.0 | 0.00 | 0.00 | 0.00 | 92 | 1011.0 |
| 20260510062252 | 15 | 216 | 1.6 | 1.6 | 0.00 | 0.00 | 0.00 | 92 | 1010.9 |
| 20260510061747 | 15 | 225 | 0.0 | 1.6 | 0.00 | 0.00 | 0.00 | 92 | 1010.8 |
| 20260510061245 | 15 | 225 | 0.0 | 0.0 | 0.00 | 0.00 | 0.00 | 92 | 1011.1 |
| 20260510060741 | 15 | 228 | 0.0 | 0.0 | 0.00 | 0.00 | 0.00 | 93 | 1011.2 |
| 20260510060238 | 15 | 228 | 0.0 | 0.0 | 0.00 | 0.00 | 0.00 | 92 | 1011.3 |
| 20260510055734 | 15 | 228 | 0.0 | 0.0 | 0.00 | 0.00 | 0.00 | 92 | 1011.4 |
| 20260510055233 | 15 | 228 | 0.0 | 0.0 | 0.00 | 0.00 | 0.00 | 92 | 1011.3 |
| 20260510054732 | 15 | 228 | 0.0 | 0.0 | 0.00 | 0.00 | 0.00 | 91 | 1011.4 |
| 20260510054229 | 15 | 228 | 0.0 | 0.0 | 0.00 | 0.00 | 0.00 | 91 | 1011.3 |
| 20260510053728 | 15 | 228 | 0.0 | 0.0 | 0.00 | 0.00 | 0.00 | 91 | 1011.4 |
| 20260510053225 | 15 | 228 | 0.0 | 0.0 | 0.00 | 0.00 | 0.00 | 90 | 1011.6 |
| 20260510052720 | 15 | 227 | 0.0 | 0.0 | 0.00 | 0.00 | 0.00 | 90 | 1011.5 |
| 20260510052217 | 15 | 227 | 0.0 | 0.0 | 0.00 | 0.00 | 0.00 | 89 | 1011.5 |
| 20260510051713 | 15 | 227 | 0.0 | 0.0 | 0.00 | 0.00 | 0.00 | 89 | 1011.4 |
| 20260510051209 | 15 | 227 | 0.0 | 0.0 | 0.00 | 0.00 | 0.00 | 88 | 1011.7 |
| 20260510050707 | 15 | 227 | 0.0 | 0.0 | 0.00 | 0.00 | 0.00 | 88 | 1011.4 |
| 20260510050204 | 16 | 226 | 0.0 | 0.0 | 0.00 | 0.00 | 0.00 | 87 | 1011.6 |
| 20260510045700 | 16 | 226 | 0.0 | 0.0 | 0.00 | 0.00 | 0.00 | 87 | 1011.7 |
| 20260510045157 | 16 | 226 | 0.0 | 0.0 | 0.00 | 0.00 | 0.00 | 86 | 1011.5 |
| 20260510044653 | 16 | 226 | 0.0 | 1.6 | 0.00 | 0.00 | 0.00 | 86 | 1011.5 |
| 20260510044151 | 16 | 226 | 0.0 | 0.0 | 0.00 | 0.00 | 0.00 | 85 | 1011.3 |
| 20260510043646 | 17 | 225 | 0.0 | 0.0 | 0.00 | 0.00 | 0.00 | 84 | 1011.6 |
| 20260510043143 | 17 | 53 | 0.0 | 0.0 | 0.00 | 0.00 | 0.00 | 82 | 1011.5 |
| 20260510042641 | 17 | 49 | 0.0 | 0.0 | 0.00 | 0.00 | 0.00 | 82 | 1011.7 |
| 20260510042137 | 17 | 169 | 0.0 | 1.6 | 0.00 | 0.00 | 0.00 | 84 | 1011.8 |
| 20260510041634 | 17 | 201 | 0.0 | 0.0 | 0.00 | 0.00 | 0.00 | 81 | 1011.4 |
| 20260510041131 | 17 | 200 | 0.0 | 0.0 | 0.00 | 0.00 | 0.00 | 81 | 1011.3 |
| 20260510040628 | 17 | 200 | 0.0 | 0.0 | 0.00 | 0.00 | 0.00 | 80 | 1011.4 |
| 20260510040125 | 17 | 64 | 1.6 | 3.2 | 0.00 | 0.00 | 0.00 | 81 | 1011.4 |
| 20260510035620 | 17 | 58 | 0.0 | 1.6 | 0.00 | 0.00 | 0.00 | 81 | 1011.5 |
| 20260510035121 | 17 | 58 | 1.6 | 1.6 | 0.00 | 0.00 | 0.00 | 80 | 1011.6 |
| 20260510034618 | 18 | 99 | 1.6 | 1.6 | 0.00 | 0.00 | 0.00 | 80 | 1011.3 |
| 20260510034115 | 18 | 163 | 1.6 | 1.6 | 0.00 | 0.00 | 0.00 | 80 | 1011.3 |
| 20260510033611 | 18 | 133 | 0.0 | 1.6 | 0.00 | 0.00 | 0.00 | 80 | 1011.2 |
| 20260510033109 | 17 | 42 | 3.2 | 3.2 | 0.00 | 0.00 | 0.00 | 80 | 1011.2 |
| 20260510032605 | 17 | 185 | 0.0 | 1.6 | 0.00 | 0.00 | 0.00 | 81 | 1011.2 |
| 20260510032101 | 17 | 246 | 0.0 | 0.0 | 0.00 | 0.00 | 0.00 | 81 | 1011.1 |
| 20260510031556 | 17 | 273 | 0.0 | 0.0 | 0.00 | 0.00 | 0.00 | 80 | 1011.2 |
| 20260510031053 | 18 | 273 | 0.0 | 0.0 | 0.00 | 0.00 | 0.00 | 79 | 1011.1 |
| 20260510030547 | 18 | 171 | 1.6 | 1.6 | 0.00 | 0.00 | 0.00 | 78 | 1010.9 |
| 20260510030045 | 18 | 181 | 0.0 | 1.6 | 0.00 | 0.00 | 0.00 | 77 | 1011.2 |
| 20260510025542 | 18 | 72 | 1.6 | 1.6 | 0.00 | 0.00 | 0.00 | 77 | 1011.1 |
| 20260510025040 | 18 | 212 | 0.0 | 1.6 | 0.00 | 0.00 | 0.00 | 78 | 1011.0 |
| 20260510024536 | 18 | 241 | 0.0 | 0.0 | 0.00 | 0.00 | 0.00 | 78 | 1010.9 |
| 20260510024032 | 18 | 242 | 0.0 | 0.0 | 0.00 | 0.00 | 0.00 | 77 | 1011.0 |
| 20260510023528 | 18 | 258 | 0.0 | 0.0 | 0.00 | 0.00 | 0.00 | 77 | 1010.9 |
| 20260510023027 | 18 | 298 | 0.0 | 0.0 | 0.00 | 0.00 | 0.00 | 76 | 1011.1 |
| 20260510022526 | 18 | 321 | 0.0 | 1.6 | 0.00 | 0.00 | 0.00 | 75 | 1011.0 |
| 20260510022026 | 18 | 162 | 0.0 | 1.6 | 0.00 | 0.00 | 0.00 | 75 | 1011.1 |
| 20260510021523 | 18 | 13 | 1.6 | 3.2 | 0.00 | 0.00 | 0.00 | 75 | 1010.9 |
| 20260510021021 | 18 | 24 | 0.0 | 1.6 | 0.00 | 0.00 | 0.00 | 74 | 1010.7 |
| 20260510020514 | 18 | 332 | 1.6 | 1.6 | 0.00 | 0.00 | 0.00 | 74 | 1010.5 |
| 20260510020010 | 19 | 305 | 0.0 | 1.6 | 0.00 | 0.00 | 0.00 | 73 | 1010.5 |
| 20260510015506 | 19 | 11 | 0.0 | 3.2 | 0.00 | 0.00 | 0.00 | 72 | 1010.4 |
| 20260510015002 | 19 | 30 | 1.6 | 3.2 | 0.00 | 0.00 | 0.00 | 72 | 1010.3 |
| 20260510014459 | 19 | 15 | 1.6 | 3.2 | 0.00 | 0.00 | 0.00 | 72 | 1010.2 |
| 20260510013956 | 19 | 291 | 0.0 | 0.0 | 0.00 | 0.00 | 0.00 | 71 | 1010.3 |
| 20260510013450 | 20 | 290 | 0.0 | 0.0 | 0.00 | 0.00 | 0.00 | 71 | 1010.3 |
| 20260510012946 | 20 | 290 | 0.0 | 1.6 | 0.00 | 0.00 | 0.00 | 69 | 1010.3 |
| 20260510012441 | 20 | 262 | 0.0 | 1.6 | 0.00 | 0.00 | 0.00 | 69 | 1010.1 |
| 20260510011936 | 20 | 76 | 3.2 | 4.8 | 0.00 | 0.00 | 0.00 | 68 | 1009.7 |
| 20260510011431 | 20 | 13 | 0.0 | 6.4 | 0.00 | 0.00 | 0.00 | 68 | 1009.5 |
| 20260510010928 | 20 | 44 | 1.6 | 3.2 | 0.00 | 0.00 | 0.00 | 68 | 1009.7 |
| 20260510010425 | 20 | 350 | 1.6 | 3.2 | 0.00 | 0.00 | 0.00 | 68 | 1009.7 |
| 20260510005922 | 20 | 298 | 0.0 | 0.0 | 0.00 | 0.00 | 0.00 | 68 | 1009.5 |
| 20260510005418 | 20 | 110 | 0.0 | 1.6 | 0.00 | 0.00 | 0.00 | 67 | 1009.5 |
| 20260510004915 | 20 | 267 | 0.0 | 0.0 | 0.00 | 0.00 | 0.00 | 67 | 1009.4 |
| 20260510004413 | 20 | 333 | 0.0 | 3.2 | 0.00 | 0.00 | 0.00 | 67 | 1009.5 |
| 20260510003910 | 20 | 292 | 0.0 | 1.6 | 0.00 | 0.00 | 0.00 | 67 | 1009.5 |
| 20260510003407 | 20 | 19 | 1.6 | 1.6 | 0.00 | 0.00 | 0.00 | 66 | 1009.5 |
| 20260510002906 | 21 | 282 | 0.0 | 0.0 | 0.00 | 0.00 | 0.00 | 66 | 1009.3 |
| 20260510002404 | 21 | 283 | 0.0 | 3.2 | 0.00 | 0.00 | 0.00 | 65 | 1009.5 |
| 20260510001900 | 21 | 353 | 3.2 | 4.8 | 0.00 | 0.00 | 0.00 | 65 | 1009.5 |
| 20260510001358 | 21 | 68 | 1.6 | 4.8 | 0.00 | 0.00 | 0.00 | 65 | 1009.5 |
| 20260510000854 | 21 | 299 | 0.0 | 1.6 | 0.00 | 0.00 | 0.00 | 65 | 1009.3 |
| 20260510000351 | 21 | 299 | 0.0 | 0.0 | 0.00 | 0.00 | 0.00 | 65 | 1009.0 |
| 20260509235847 | 21 | 299 | 0.0 | 0.0 | 0.00 | 0.00 | 0.00 | 65 | 1008.9 |
| 20260509235344 | 21 | 299 | 0.0 | 1.6 | 0.00 | 0.00 | 0.00 | 65 | 1008.9 |
| 20260509234840 | 21 | 293 | 0.0 | 0.0 | 0.00 | 0.00 | 0.00 | 64 | 1009.0 |
| 20260509234337 | 21 | 293 | 0.0 | 0.0 | 0.00 | 0.00 | 0.00 | 64 | 1008.9 |
| 20260509233836 | 21 | 245 | 0.0 | 0.0 | 0.00 | 0.00 | 0.00 | 63 | 1008.9 |
| 20260509233333 | 21 | 307 | 0.0 | 0.0 | 0.00 | 0.00 | 0.00 | 63 | 1008.9 |
| 20260509232828 | 21 | 276 | 0.0 | 0.0 | 0.00 | 0.00 | 0.00 | 63 | 1008.7 |
| 20260509232327 | 21 | 276 | 0.0 | 0.0 | 0.00 | 0.00 | 0.00 | 63 | 1008.6 |
| 20260509231822 | 21 | 276 | 0.0 | 0.0 | 0.00 | 0.00 | 0.00 | 62 | 1008.6 |
| 20260509231319 | 22 | 276 | 0.0 | 1.6 | 0.00 | 0.00 | 0.00 | 62 | 1008.6 |
| 20260509230817 | 22 | 314 | 0.0 | 1.6 | 0.00 | 0.00 | 0.00 | 61 | 1008.6 |
| 20260509230314 | 22 | 296 | 0.0 | 1.6 | 0.00 | 0.00 | 0.00 | 60 | 1008.5 |
| 20260509225809 | 22 | 296 | 0.0 | 3.2 | 0.00 | 0.00 | 0.00 | 59 | 1008.6 |
| 20260509225306 | 22 | 335 | 1.6 | 4.8 | 0.00 | 0.00 | 0.00 | 58 | 1008.6 |
| 20260509224802 | 22 | 307 | 0.0 | 0.0 | 0.00 | 0.00 | 0.00 | 58 | 1008.6 |
| 20260509224258 | 23 | 41 | 0.0 | 1.6 | 0.00 | 0.00 | 0.00 | 57 | 1008.4 |
| 20260509223755 | 23 | 31 | 3.2 | 9.7 | 0.00 | 0.00 | 0.00 | 56 | 1008.2 |
| 20260509223252 | 23 | 5 | 1.6 | 4.8 | 0.00 | 0.00 | 0.00 | 54 | 1008.5 |
| 20260509222749 | 23 | 66 | 3.2 | 9.7 | 0.00 | 0.00 | 0.00 | 53 | 1008.5 |
| 20260509222244 | 24 | 15 | 3.2 | 6.4 | 0.00 | 0.00 | 0.00 | 53 | 1008.4 |
| 20260509221740 | 24 | 24 | 1.6 | 4.8 | 0.00 | 0.00 | 0.00 | 54 | 1008.6 |
| 20260509221237 | 23 | 94 | 3.2 | 6.4 | 0.00 | 0.00 | 0.00 | 52 | 1008.4 |
| 20260509220732 | 23 | 8 | 3.2 | 6.4 | 0.00 | 0.00 | 0.00 | 55 | 1008.5 |
| 20260509220229 | 23 | 19 | 1.6 | 4.8 | 0.00 | 0.00 | 0.00 | 55 | 1008.5 |
| 20260509215725 | 24 | 40 | 8.0 | 9.7 | 0.00 | 0.00 | 0.00 | 53 | 1008.5 |
| 20260509215221 | 24 | 28 | 3.2 | 6.4 | 0.00 | 0.00 | 0.00 | 51 | 1008.6 |
| 20260509214719 | 25 | 4 | 4.8 | 9.7 | 0.00 | 0.00 | 0.00 | 50 | 1008.5 |
| 20260509214216 | 25 | 9 | 1.6 | 4.8 | 0.00 | 0.00 | 0.00 | 52 | 1008.4 |
| 20260509213713 | 25 | 299 | 3.2 | 9.7 | 0.00 | 0.00 | 0.00 | 51 | 1008.4 |
| 20260509213208 | 25 | 65 | 1.6 | 4.8 | 0.00 | 0.00 | 0.00 | 51 | 1008.1 |
| 20260509212706 | 25 | 91 | 8.0 | 11.3 | 0.00 | 0.00 | 0.00 | 49 | 1008.0 |
| 20260509212203 | 25 | 152 | 9.7 | 11.3 | 0.00 | 0.00 | 0.00 | 48 | 1008.2 |
| 20260509211659 | 25 | 66 | 1.6 | 4.8 | 0.00 | 0.00 | 0.00 | 50 | 1008.1 |
| 20260509211155 | 24 | 55 | 6.4 | 20.9 | 0.00 | 0.00 | 0.00 | 50 | 1008.2 |
| 20260509210652 | 25 | 74 | 8.0 | 11.3 | 0.00 | 0.00 | 0.00 | 49 | 1008.2 |
| 20260509210149 | 25 | 47 | 3.2 | 9.7 | 0.00 | 0.00 | 0.00 | 49 | 1008.2 |
| 20260509205644 | 25 | 55 | 3.2 | 11.3 | 0.00 | 0.00 | 0.00 | 50 | 1008.2 |
| 20260509205144 | 25 | 69 | 11.3 | 12.9 | 0.00 | 0.00 | 0.00 | 48 | 1008.4 |
| 20260509204641 | 25 | 44 | 3.2 | 4.8 | 0.00 | 0.00 | 0.00 | 48 | 1008.1 |
| 20260509204137 | 24 | 23 | 0.0 | 11.3 | 0.00 | 0.00 | 0.00 | 50 | 1008.3 |
| 20260509203633 | 24 | 91 | 9.7 | 12.9 | 0.00 | 0.00 | 0.00 | 49 | 1008.3 |
| 20260509203131 | 24 | 25 | 8.0 | 12.9 | 0.00 | 0.00 | 0.00 | 51 | 1008.3 |
| 20260509202631 | 23 | 75 | 3.2 | 9.7 | 0.00 | 0.00 | 0.00 | 53 | 1008.3 |
| 20260509202126 | 23 | 26 | 6.4 | 16.1 | 0.00 | 0.00 | 0.00 | 50 | 1008.6 |
| 20260509201622 | 24 | 102 | 9.7 | 11.3 | 0.00 | 0.00 | 0.00 | 48 | 1008.3 |
| 20260509201120 | 23 | 42 | 9.7 | 14.5 | 0.00 | 0.00 | 0.00 | 51 | 1008.6 |
| 20260509200615 | 23 | 81 | 3.2 | 12.9 | 0.00 | 0.00 | 0.00 | 50 | 1008.6 |
| 20260509200111 | 24 | 61 | 6.4 | 11.3 | 0.00 | 0.00 | 0.00 | 48 | 1008.6 |
| 20260509195607 | 24 | 40 | 11.3 | 20.9 | 0.00 | 0.00 | 0.00 | 48 | 1008.7 |
| 20260509195101 | 24 | 17 | 9.7 | 12.9 | 0.00 | 0.00 | 0.00 | 48 | 1008.5 |
| 20260509194601 | 23 | 78 | 9.7 | 14.5 | 0.00 | 0.00 | 0.00 | 49 | 1008.4 |
| 20260509194059 | 24 | 115 | 4.8 | 12.9 | 0.00 | 0.00 | 0.00 | 48 | 1008.4 |
| 20260509193554 | 25 | 57 | 3.2 | 4.8 | 0.00 | 0.00 | 0.00 | 47 | 1008.6 |
| 20260509193051 | 25 | 38 | 3.2 | 12.9 | 0.00 | 0.00 | 0.00 | 48 | 1008.5 |
| 20260509192547 | 25 | 272 | 3.2 | 16.1 | 0.00 | 0.00 | 0.00 | 48 | 1008.6 |
| 20260509192043 | 25 | 120 | 3.2 | 17.7 | 0.00 | 0.00 | 0.00 | 47 | 1008.6 |
| 20260509191543 | 23 | 79 | 0.0 | 9.7 | 0.00 | 0.00 | 0.00 | 53 | 1009.0 |
| 20260509191039 | 23 | 44 | 4.8 | 6.4 | 0.00 | 0.00 | 0.00 | 51 | 1008.9 |
| 20260509190536 | 23 | 91 | 11.3 | 12.9 | 0.00 | 0.00 | 0.00 | 51 | 1008.7 |
| 20260509190034 | 23 | 88 | 3.2 | 6.4 | 0.00 | 0.00 | 0.00 | 52 | 1008.9 |
| 20260509185531 | 23 | 158 | 3.2 | 6.4 | 0.00 | 0.00 | 0.00 | 51 | 1009.0 |
| 20260509185027 | 23 | 6 | 1.6 | 4.8 | 0.00 | 0.00 | 0.00 | 52 | 1009.1 |
| 20260509184526 | 22 | 345 | 1.6 | 11.3 | 0.00 | 0.00 | 0.00 | 52 | 1009.2 |
| 20260509184021 | 23 | 84 | 6.4 | 11.3 | 0.00 | 0.00 | 0.00 | 48 | 1009.2 |
| 20260509183517 | 24 | 100 | 6.4 | 14.5 | 0.00 | 0.00 | 0.00 | 46 | 1009.2 |
| 20260509183013 | 24 | 41 | 11.3 | 12.9 | 0.00 | 0.00 | 0.00 | 48 | 1009.3 |
| 20260509182509 | 23 | 37 | 1.6 | 3.2 | 0.00 | 0.00 | 0.00 | 48 | 1009.2 |
| 20260509182007 | 23 | 136 | 1.6 | 9.7 | 0.00 | 0.00 | 0.00 | 50 | 1009.4 |
| 20260509181505 | 23 | 264 | 3.2 | 4.8 | 0.00 | 0.00 | 0.00 | 51 | 1009.6 |
| 20260509181002 | 23 | 59 | 1.6 | 4.8 | 0.00 | 0.00 | 0.00 | 50 | 1009.5 |
| 20260509180457 | 23 | 106 | 6.4 | 14.5 | 0.00 | 0.00 | 0.00 | 49 | 1009.7 |
| 20260509175954 | 23 | 43 | 8.0 | 9.7 | 0.00 | 0.00 | 0.00 | 49 | 1009.6 |
| 20260509175450 | 23 | 5 | 1.6 | 9.7 | 0.00 | 0.00 | 0.00 | 50 | 1009.6 |
| 20260509174947 | 23 | 38 | 3.2 | 9.7 | 0.00 | 0.00 | 0.00 | 50 | 1009.8 |
| 20260509174443 | 23 | 40 | 4.8 | 11.3 | 0.00 | 0.00 | 0.00 | 49 | 1009.5 |
| 20260509173939 | 22 | 84 | 6.4 | 12.9 | 0.00 | 0.00 | 0.00 | 51 | 1009.8 |
| 20260509173438 | 22 | 286 | 1.6 | 4.8 | 0.00 | 0.00 | 0.00 | 52 | 1009.9 |
| 20260509172935 | 23 | 57 | 4.8 | 12.9 | 0.00 | 0.00 | 0.00 | 52 | 1009.9 |
| 20260509172432 | 22 | 17 | 8.0 | 12.9 | 0.00 | 0.00 | 0.00 | 53 | 1010.0 |
| 20260509171928 | 22 | 66 | 3.2 | 11.3 | 0.00 | 0.00 | 0.00 | 54 | 1010.1 |
| 20260509171424 | 22 | 101 | 8.0 | 12.9 | 0.00 | 0.00 | 0.00 | 50 | 1010.2 |
| 20260509170921 | 22 | 324 | 4.8 | 11.3 | 0.00 | 0.00 | 0.00 | 52 | 1010.3 |
| 20260509170416 | 22 | 145 | 1.6 | 9.7 | 0.00 | 0.00 | 0.00 | 53 | 1010.3 |
| 20260509165913 | 22 | 22 | 6.4 | 14.5 | 0.00 | 0.00 | 0.00 | 53 | 1010.6 |
| 20260509165407 | 23 | 62 | 9.7 | 12.9 | 0.00 | 0.00 | 0.00 | 50 | 1010.5 |
| 20260509164902 | 22 | 42 | 1.6 | 3.2 | 0.00 | 0.00 | 0.00 | 53 | 1010.6 |
| 20260509164358 | 22 | 357 | 6.4 | 12.9 | 0.00 | 0.00 | 0.00 | 52 | 1010.7 |
| 20260509163855 | 21 | 142 | 4.8 | 9.7 | 0.00 | 0.00 | 0.00 | 53 | 1010.7 |
| 20260509163352 | 21 | 31 | 3.2 | 17.7 | 0.00 | 0.00 | 0.00 | 56 | 1010.5 |
| 20260509162851 | 21 | 74 | 9.7 | 12.9 | 0.00 | 0.00 | 0.00 | 54 | 1010.8 |
| 20260509162349 | 21 | 101 | 6.4 | 12.9 | 0.00 | 0.00 | 0.00 | 54 | 1010.9 |
| 20260509161846 | 22 | 82 | 8.0 | 16.1 | 0.00 | 0.00 | 0.00 | 53 | 1010.7 |
| 20260509161342 | 22 | 1 | 3.2 | 11.3 | 0.00 | 0.00 | 0.00 | 53 | 1010.7 |
| 20260509160838 | 22 | 216 | 3.2 | 6.4 | 0.00 | 0.00 | 0.00 | 54 | 1010.8 |
| 20260509160334 | 21 | 275 | 1.6 | 6.4 | 0.00 | 0.00 | 0.00 | 55 | 1010.7 |
| 20260509155829 | 21 | 30 | 3.2 | 12.9 | 0.00 | 0.00 | 0.00 | 53 | 1010.7 |
| 20260509155326 | 21 | 39 | 11.3 | 17.7 | 0.00 | 0.00 | 0.00 | 53 | 1010.8 |
| 20260509154822 | 22 | 35 | 6.4 | 14.5 | 0.00 | 0.00 | 0.00 | 53 | 1010.9 |
| 20260509154319 | 21 | 251 | 1.6 | 14.5 | 0.00 | 0.00 | 0.00 | 55 | 1010.9 |
| 20260509153816 | 21 | 62 | 8.0 | 14.5 | 0.00 | 0.00 | 0.00 | 56 | 1011.1 |
| 20260509153313 | 20 | 58 | 12.9 | 14.5 | 0.00 | 0.00 | 0.00 | 55 | 1010.9 |
| 20260509152810 | 21 | 45 | 3.2 | 12.9 | 0.00 | 0.00 | 0.00 | 56 | 1010.7 |
| 20260509152306 | 21 | 77 | 8.0 | 11.3 | 0.00 | 0.00 | 0.00 | 53 | 1010.8 |
| 20260509151803 | 21 | 64 | 4.8 | 16.1 | 0.00 | 0.00 | 0.00 | 53 | 1010.9 |
| 20260509151259 | 21 | 288 | 4.8 | 14.5 | 0.00 | 0.00 | 0.00 | 54 | 1010.9 |
| 20260509150758 | 21 | 57 | 6.4 | 9.7 | 0.00 | 0.00 | 0.00 | 55 | 1010.9 |
| 20260509150255 | 20 | 68 | 6.4 | 9.7 | 0.00 | 0.00 | 0.00 | 58 | 1011.1 |
| 20260509145752 | 20 | 78 | 11.3 | 17.7 | 0.00 | 0.00 | 0.00 | 58 | 1011.0 |
| 20260509145251 | 20 | 103 | 6.4 | 16.1 | 0.00 | 0.00 | 0.00 | 57 | 1011.1 |
| 20260509144748 | 21 | 108 | 9.7 | 12.9 | 0.00 | 0.00 | 0.00 | 55 | 1011.0 |
| 20260509144245 | 20 | 44 | 4.8 | 11.3 | 0.00 | 0.00 | 0.00 | 59 | 1011.1 |
| 20260509143742 | 21 | 49 | 4.8 | 14.5 | 0.00 | 0.00 | 0.00 | 61 | 1011.2 |
| 20260509143240 | 20 | 80 | 3.2 | 11.3 | 0.00 | 0.00 | 0.00 | 59 | 1011.3 |
| 20260509142736 | 21 | 297 | 1.6 | 12.9 | 0.00 | 0.00 | 0.00 | 58 | 1011.3 |
| 20260509142232 | 20 | 87 | 1.6 | 3.2 | 0.00 | 0.00 | 0.00 | 59 | 1011.3 |
| 20260509141728 | 20 | 130 | 9.7 | 14.5 | 0.00 | 0.00 | 0.00 | 58 | 1011.6 |
| 20260509141226 | 20 | 5 | 3.2 | 4.8 | 0.00 | 0.00 | 0.00 | 59 | 1011.6 |
| 20260509140722 | 19 | 36 | 1.6 | 11.3 | 0.00 | 0.00 | 0.00 | 62 | 1011.9 |